Theta_e
309 310 307 307 306 307 306 306 305 306 306 305 306 307 306 307 307 305 305 304 304 303 304 304 304 303 305 303 303 304 306 305 305 305 304 305 303 304 306 305 305 306
307 309 310 308 306 307 306 306 307 306 306 305 306 306 305 305 305 305 304 305 305 303 304 304 304 303 302 303 302 303 302 301 301 307 303 302 303 302 302 303 304 304
307 307 308 307 306 306 306 305 307 306 306 305 304 304 306 305 305 303 304 304 303 303 302 302 302 303 303 302 302 301 301 301 300 301 303 302 302 301 302 303 302 303
308 307 308 307 307 306 306 305 305 306 304 305 304 306 307 308 305 303 304 309 302 301 301 302 302 301 301 301 301 300 299 300 301 300 300 301 302 302 301 302 303 302
308 308 307 307 307 307 307 306 305 305 305 305 303 305 308 306 304 303 303 302 301 300 301 301 300 301 302 300 300 300 301 301 300 300 300 300 300 301 302 302 300 300
308 308 308 307 307 307 306 306 306 305 305 303 304 307 305 305 304 304 303 301 300 300 300 299 300 300 300 299 298 299 299 300 300 299 299 299 300 300 302 301 300 299
308 308 307 307 306 307 306 306 306 306 305 305 305 304 304 303 303 302 301 301 300 302 299 299 299 299 298 298 298 297 298 298 298 299 299 299 300 300 300 300 301 300
308 308 308 306 306 306 306 305 305 305 305 305 305 303 303 303 302 300 300 299 299 300 299 299 298 298 297 298 298 297 296 298 299 297 297 298 298 298 299 300 300 299
308 307 307 306 305 305 305 305 305 304 305 305 304 302 302 302 301 301 300 299 298 298 298 297 298 298 297 298 297 297 296 296 298 296 297 298 297 298 298 299 298 299
306 307 306 306 305 304 304 304 304 304 305 304 303 302 302 301 301 301 300 298 299 297 296 296 297 298 298 297 297 297 296 297 296 296 296 297 297 297 298 298 298 298
304 304 305 305 305 304 303 303 303 303 303 303 302 302 301 301 301 299 298 298 298 297 296 296 296 296 296 295 295 296 296 296 296 295 296 296 297 297 300 299 299 299
305 304 303 302 304 303 303 303 303 303 303 302 302 301 299 300 300 299 300 297 297 296 296 295 295 295 295 295 295 295 295 295 295 296 296 296 297 297 298 299 299 300
307 306 305 304 304 304 304 304 303 303 302 302 302 301 300 298 297 299 298 297 297 296 296 296 295 294 294 294 294 294 294 295 295 295 296 296 296 297 298 298 299 299
308 307 306 305 305 305 304 304 303 302 302 301 301 300 299 298 298 298 297 297 296 296 296 296 294 294 293 293 294 294 294 295 295 296 296 295 296 296 297 297 297 297
307 306 305 305 305 305 304 304 304 303 301 301 300 300 300 298 297 297 297 295 294 295 295 296 295 295 294 294 294 294 293 294 295 295 294 294 294 294 294 295 295 295
306 305 305 305 305 304 304 304 303 302 302 301 299 299 298 297 296 296 296 295 294 293 292 295 294 294 299 298 297 296 295 295 294 294 294 293 294 293 293 293 294 294
306 305 305 304 305 304 304 304 303 302 301 300 298 298 297 298 296 295 293 293 294 293 292 293 294 295 296 293 293 294 294 293 293 293 293 293 293 292 292 293 293 293
306 305 304 305 304 304 304 304 303 302 300 299 298 297 297 296 294 293 293 293 292 291 291 292 293 296 293 293 293 293 294 294 293 292 293 292 292 292 292 292 292 292
304 304 304 303 303 303 303 302 302 301 299 298 298 298 296 294 293 293 293 292 292 291 290 292 292 294 293 293 293 292 292 293 292 291 291 291 291 291 291 291 291 292
305 304 304 303 303 303 302 301 300 300 299 299 297 295 294 293 293 293 292 292 290 290 290 290 289 293 292 293 293 292 291 291 291 291 290 290 290 290 291 290 290 290
304 304 303 303 303 302 302 301 299 297 297 296 296 294 293 293 293 292 291 291 291 289 288 288 290 293 291 291 291 291 291 291 290 290 290 290 290 290 290 290 290 290
301 300 299 299 301 300 299 298 297 296 295 294 293 292 292 292 291 292 292 291 290 287 288 287 287 290 290 291 291 290 291 291 289 289 288 289 289 289 289 289 289 289
301 299 299 298 298 298 296 296 295 293 293 293 293 292 292 291 291 291 291 290 288 287 286 285 285 289 290 290 290 290 290 289 288 288 288 288 288 288 289 289 289 289
301 301 301 301 300 298 296 295 294 294 293 293 293 291 290 291 290 290 289 289 288 287 286 285 285 289 291 290 290 290 291 289 288 288 287 287 287 288 288 288 289 292
302 302 301 300 299 297 296 295 294 294 293 292 292 291 291 289 291 289 288 287 288 287 293 290 285 287 291 290 290 290 290 289 288 287 287 287 287 287 287 288 288 290
301 301 300 298 297 295 295 294 293 293 292 291 290 290 289 288 290 288 288 288 287 289 288 287 285 284 287 289 290 290 291 290 288 287 286 286 287 287 287 288 289 289
Wind_Speed
9 8 9 8 8 7 7 7 5 6 6 5 6 5 5 4 3 3 3 3 3 3 1 3 3 4 3 3 3 3 4 4 3 3 3 4 3 3 4 3 3 3
9 9 8 8 7 6 6 7 7 7 7 6 6 4 3 2 2 3 4 3 2 3 2 3 4 4 4 3 3 3 3 3 3 1 3 3 2 2 3 3 2 2
8 7 8 10 10 9 8 6 6 7 7 6 4 4 4 3 4 2 3 4 3 2 3 3 3 3 3 4 4 3 3 3 2 1 1 1 1 2 1 1 2 2
8 9 10 9 8 9 7 7 5 5 4 4 5 5 5 4 4 4 3 3 3 2 2 2 2 2 3 3 3 3 3 3 3 2 2 1 0 1 1 1 0 2
10 9 7 8 8 7 7 8 8 6 6 5 4 4 5 5 4 4 3 3 3 3 2 2 1 1 1 1 2 3 4 4 4 4 4 4 3 2 2 1 2 3
7 8 7 8 8 8 8 8 8 7 6 5 6 4 4 5 5 4 4 4 3 3 2 1 0 1 1 2 3 4 4 5 5 4 4 4 4 4 4 4 4 3
10 9 8 7 7 8 9 8 8 7 7 7 5 5 5 5 4 4 4 3 3 3 2 1 0 2 3 4 3 3 4 3 4 4 4 4 4 5 4 4 5 5
10 9 9 7 8 7 8 8 8 8 7 7 7 6 6 6 5 4 4 3 3 2 1 0 0 2 2 2 2 3 3 2 3 3 4 4 4 5 5 5 5 6
8 8 8 8 9 7 7 7 7 7 7 9 7 7 5 7 6 5 4 4 3 2 1 1 0 0 1 0 0 1 2 3 3 3 4 4 4 5 5 5 5 5
5 6 8 9 9 7 7 5 6 6 6 7 7 7 7 5 6 6 5 4 3 2 2 2 1 0 0 0 1 2 3 3 4 4 4 4 5 5 5 5 5 5
3 2 5 8 8 7 6 5 5 6 4 6 6 6 5 6 4 5 5 5 5 4 4 3 2 2 1 2 3 3 3 4 4 4 4 4 5 5 5 6 6 5
9 6 3 3 5 7 7 7 6 6 6 5 6 6 4 4 5 4 5 5 5 5 4 4 4 3 3 3 3 3 3 3 4 4 4 5 5 5 5 5 6 6
11 11 11 7 5 6 7 8 7 7 7 7 5 7 6 4 4 5 4 6 5 5 5 4 4 4 3 3 3 3 4 4 4 5 5 5 4 5 5 5 5 5
12 12 14 14 12 10 10 9 8 7 6 5 5 6 6 6 6 6 5 5 6 5 5 4 4 3 2 2 2 3 4 4 5 5 6 6 5 6 5 5 5 5
8 7 8 10 11 12 12 12 11 9 7 6 5 6 5 6 5 6 5 4 4 4 4 3 3 2 2 2 3 4 4 5 6 6 7 7 7 6 6 6 6 5
9 10 11 11 11 11 11 12 11 10 9 7 6 6 6 6 6 5 6 6 5 3 3 3 2 1 2 5 5 4 4 5 6 6 7 7 8 8 7 6 7 6
10 11 12 13 13 12 12 13 13 11 10 9 8 7 8 6 6 6 4 4 5 5 3 1 0 1 4 6 7 9 6 5 5 6 6 7 7 8 8 8 6 6
9 9 10 12 14 15 13 12 12 11 11 10 10 8 7 6 5 5 5 5 4 4 2 0 0 3 5 7 8 9 9 7 5 6 6 6 7 8 8 7 7 7
9 11 9 7 5 5 5 8 10 10 10 9 10 8 7 7 6 6 5 4 5 4 2 0 1 4 6 8 9 10 11 10 6 6 7 7 7 8 8 8 7 8
12 13 14 13 12 12 10 9 10 11 10 9 8 7 7 6 6 6 5 5 4 4 2 2 2 5 7 8 10 11 12 10 6 7 7 8 8 8 8 9 9 9
11 10 11 13 12 12 11 10 9 8 9 8 8 8 8 8 8 6 5 5 4 4 3 2 3 6 7 9 10 12 13 10 6 7 7 7 8 8 9 10 9 9
4 2 2 2 6 9 10 10 9 10 10 7 6 6 6 6 4 6 6 5 4 4 3 3 4 8 8 9 11 11 12 7 6 7 8 8 8 9 9 9 8 9
9 11 11 8 7 7 4 7 10 9 8 7 8 7 7 7 7 5 6 6 4 4 4 4 4 7 8 10 10 12 9 6 6 7 7 8 9 9 9 9 8 8
11 13 14 14 13 12 9 7 7 7 7 6 9 8 7 7 6 5 4 5 5 5 6 4 4 6 8 9 10 11 10 7 7 7 9 9 10 9 8 9 9 16
11 12 13 13 11 10 10 11 10 10 8 7 7 7 7 6 5 6 4 4 5 5 8 5 4 5 7 9 10 11 9 6 7 7 9 10 10 10 8 8 9 10
11 12 11 12 10 7 8 9 8 8 8 8 7 7 7 5 4 5 6 6 6 5 5 4 3 4 4 9 10 11 12 9 7 8 10 12 10 10 11 10 9 10
Wind_Direction
173 174 175 181 188 185 177 179 191 178 184 177 181 199 195 212 153 140 133 122 127 125 129 82 68 62 70 79 75 66 59 45 29 25 39 42 42 46 32 20 19 12
185 179 179 177 181 184 185 183 181 181 186 186 195 184 192 154 174 149 139 127 103 102 82 65 51 45 39 48 58 73 82 79 49 20 33 33 33 50 27 9 10 357
181 178 175 181 186 188 185 187 183 186 179 192 179 167 174 163 153 148 142 140 125 118 82 80 61 54 60 51 45 37 23 16 35 105 99 60 14 33 8 7 5 12
192 187 186 188 182 184 177 173 188 188 172 153 185 180 163 158 147 148 155 136 132 111 93 75 96 82 68 69 57 27 6 349 331 5 28 39 35 47 326 323 16 338
191 193 193 186 186 177 167 175 181 181 178 184 152 148 143 140 142 144 137 120 112 95 77 86 56 52 58 43 39 4 345 338 334 352 351 341 333 354 317 338 327 317
195 192 189 185 182 173 176 181 179 171 167 158 172 152 145 145 145 146 140 116 100 112 95 64 26 356 356 342 10 1 360 350 334 348 346 336 329 337 333 329 321 316
186 183 188 184 178 181 177 179 172 169 170 167 143 152 143 143 145 142 130 127 123 125 136 161 160 292 5 23 19 4 346 342 330 341 341 329 332 329 330 324 318 314
186 182 178 171 175 179 180 174 168 169 162 148 156 160 150 145 144 140 130 127 126 134 155 150 4 24 11 29 9 355 333 325 332 325 325 317 325 318 318 314 314 313
184 179 172 174 172 178 178 173 168 159 158 153 153 151 150 145 148 145 142 137 140 143 104 76 77 12 6 72 91 276 297 308 303 306 296 296 300 295 299 304 306 304
209 182 172 173 173 172 170 170 161 157 156 150 149 145 147 150 144 147 142 137 124 103 112 121 103 68 353 234 257 262 272 275 286 287 284 282 282 285 288 287 282 290
207 246 192 174 168 158 160 157 156 149 152 145 140 145 147 140 135 132 126 131 138 139 132 131 159 177 215 275 285 267 259 269 274 277 277 279 278 279 280 279 277 270
160 150 194 204 160 153 152 153 150 149 148 148 147 146 144 143 140 138 141 141 135 141 148 168 178 188 199 227 243 255 261 266 269 271 274 274 276 274 271 269 270 274
166 166 156 162 165 155 148 148 151 153 150 155 154 143 142 135 140 136 138 134 143 145 161 173 185 192 205 221 242 261 269 272 274 269 266 264 259 259 259 260 267 281
178 173 170 163 158 157 154 150 146 151 155 150 138 139 145 150 152 146 148 137 156 161 176 172 177 192 220 246 255 264 265 267 265 269 269 267 265 262 262 261 262 268
170 159 149 153 156 155 154 153 152 152 149 149 147 143 150 153 150 143 142 142 151 160 163 162 159 197 218 239 272 282 270 273 278 277 277 278 275 271 266 265 264 262
168 164 164 154 151 158 160 155 150 148 148 150 151 151 149 150 147 152 152 157 150 132 142 156 180 200 250 274 278 278 285 288 285 284 281 280 281 279 273 263 260 257
171 173 167 166 162 160 164 158 153 148 147 148 149 151 154 156 148 146 145 141 140 148 140 130 183 251 291 298 299 296 294 286 282 282 278 276 274 273 274 271 263 255
179 172 175 174 166 165 169 160 145 144 148 149 148 152 155 138 133 141 140 143 133 122 121 140 33 281 292 293 294 296 295 290 287 285 284 279 274 272 271 271 269 265
163 166 163 159 175 147 144 138 140 143 143 143 153 155 134 134 144 139 147 141 130 129 122 171 219 263 277 289 291 291 291 291 286 281 281 281 278 276 274 273 271 270
177 176 175 169 159 149 153 155 154 152 151 146 133 125 132 135 143 142 143 143 141 137 172 195 239 266 277 285 290 289 289 289 283 282 278 275 276 275 275 274 271 273
183 180 180 167 160 153 153 155 149 134 131 134 138 144 142 147 150 145 157 150 145 158 161 210 249 265 277 283 285 286 287 290 282 278 275 273 271 270 269 270 270 270
152 112 30 5 128 136 140 142 137 136 132 130 124 129 132 133 140 144 156 162 171 143 148 230 260 265 276 282 286 288 291 292 284 276 275 272 271 270 268 267 267 266
137 126 120 118 103 97 127 137 129 122 124 132 130 140 144 155 166 179 172 163 153 153 176 222 251 269 276 283 289 294 299 288 282 279 273 274 270 269 268 268 267 266
150 146 147 152 150 150 152 125 104 112 135 143 141 150 162 180 179 171 165 150 161 186 189 202 240 265 277 288 293 297 296 291 284 282 280 277 277 270 268 267 262 266
158 153 150 148 146 146 142 142 148 151 149 149 151 162 177 177 170 164 162 178 190 195 202 207 229 266 282 288 292 296 299 292 289 286 287 282 281 280 269 266 268 266
157 153 144 136 136 139 138 140 137 132 147 159 170 169 165 170 166 161 171 197 202 199 215 213 221 261 276 284 292 294 295 295 290 292 287 286 283 284 285 275 267 268